Location: Chevoux
(46.3801°N, 4.9476°E)
Time: 17:13:03
(UTC+00:00)

MOS 1 Rocket - Pass Details

Date: 28 January 2021
Orbit: 614 x 830 km, 97.4° (Epoch: 01 March)

Event Time Altitude Azimuth Distance (km) Brightness Sun altitude
Rises 18:38:44 0° 5° (N) 2,898 6.4 -20.7°
Reaches altitude 10° 18:41:02 10° 357° (N) 1,985 5.6 -21.1°
Maximum altitude 18:44:59 37° 290° (WNW) 960 4.5 -21.7°
Drops below altitude 10° 18:48:58 10° 223° (SW) 2,002 6.3 -22.4°
Sets 18:51:18 0° 215° (SW) 2,926 7.0 -22.8°
